"Sample Date","Sample Time","Sample Value","Units","Flow Rate","Sample Interval","Number Channels","Micron Size 0","Counts/Channel 0","Micron Size 1","Counts/Channel 1","Micron Size 2","Counts/Channel 2","Micron Size 3","Counts/Channel 3","Micron Size 4","Counts/Channel 4","Micron Size 5","Counts/Channel 5","Micron Size 6","Counts/Channel 6","Micron Size 7","Counts/Channel 7","Micron Size 8","Counts/Channel 8","Micron Size 9","Counts/Channel 9","Micron Size 10","Counts/Channel 10","Micron Size 11","Counts/Channel 11","Micron Size 12","Counts/Channel 12","Micron Size 13","Counts/Channel 13","Micron Size 14","Counts/Channel 14","Micron Size 15","Counts/Channel 15","Micron Size 16","Counts/Channel 16","Micron Size 17","Counts/Channel 17","Micron Size 18","Counts/Channel 18","Micron Size 19","Counts/Channel 19","Micron Size 20","Counts/Channel 20","Micron Size 21","Counts/Channel 21","Micron Size 22","Counts/Channel 22","Micron Size 23","Counts/Channel 23","Micron Size 24","Counts/Channel 24","Micron Size 25","Counts/Channel 25","Micron Size 26","Counts/Channel 26","Micron Size 27","Counts/Channel 27","Micron Size 28","Counts/Channel 28","Micron Size 29","Counts/Channel 29","Micron Size 30","Counts/Channel 30","Micron Size 31","Counts/Channel 31"
"03/09/08","05:00:03",18768.000,"cc",28300.205,6.00,6,0.100,17726.000,0.200,964.000,0.300,72.000,0.500,5.000,1.000,1.000,5.000,0
"03/09/08","05:00:09",18716.000,"cc",28287.879,6.00,6,0.100,17742.000,0.200,918.000,0.300,53.000,0.500,3.000,1.000,0,5.000,0
"03/09/08","05:00:15",18742.000,"cc",28351.656,6.00,6,0.100,17603.000,0.200,1035.000,0.300,98.000,0.500,6.000,1.000,0,5.000,0
"03/09/08","05:00:21",19034.000,"cc",28302.666,6.00,6,0.100,17888.000,0.200,1040.000,0.300,102.000,0.500,4.000,1.000,0,5.000,0
"03/09/08","05:00:27",18583.000,"cc",28348.318,6.00,6,0.100,17522.000,0.200,948.000,0.300,100.000,0.500,13.000,1.000,0,5.000,0
"03/09/08","05:00:33",18545.000,"cc",28297.906,6.00,6,0.100,17462.000,0.200,997.000,0.300,78.000,0.500,8.000,1.000,0,5.000,0
"03/09/08","05:00:39",18695.000,"cc",28349.342,6.00,6,0.100,17698.000,0.200,925.000,0.300,67.000,0.500,5.000,1.000,0,5.000,0
"03/09/08","05:00:45",18662.000,"cc",28364.160,6.00,6,0.100,17651.000,0.200,933.000,0.300,72.000,0.500,6.000,1.000,0,5.000,0
"03/09/08","05:00:51",18643.000,"cc",28364.232,6.00,6,0.100,17545.000,0.200,1032.000,0.300,62.000,0.500,4.000,1.000,0,5.000,0
"03/09/08","05:00:57",18284.000,"cc",28296.690,6.00,6,0.100,17261.000,0.200,941.000,0.300,75.000,0.500,7.000,1.000,0,5.000,0
"03/09/08","05:01:03",18552.000,"cc",28272.320,6.00,6,0.100,17508.000,0.200,979.000,0.300,60.000,0.500,5.000,1.000,0,5.000,0
"03/09/08","05:01:09",18409.000,"cc",28286.854,6.00,6,0.100,17386.000,0.200,945.000,0.300,73.000,0.500,5.000,1.000,0,5.000,0
"03/09/08","05:01:15",18703.000,"cc",28351.625,6.00,6,0.100,17549.000,0.200,1070.000,0.300,80.000,0.500,4.000,1.000,0,5.000,0
"03/09/08","05:01:21",18404.000,"cc",28273.084,6.00,6,0.100,17341.000,0.200,982.000,0.300,74.000,0.500,6.000,1.000,1.000,5.000,0
"03/09/08","05:01:27",18674.000,"cc",28346.158,6.00,6,0.100,17571.000,0.200,999.000,0.300,90.000,0.500,14.000,1.000,0,5.000,0
"03/09/08","05:01:33",18467.000,"cc",28283.113,6.00,6,0.100,17422.000,0.200,980.000,0.300,53.000,0.500,12.000,1.000,0,5.000,0
"03/09/08","05:01:39",18352.000,"cc",28341.918,6.00,6,0.100,17270.000,0.200,981.000,0.300,89.000,0.500,12.000,1.000,0,5.000,0
"03/09/08","05:01:45",18868.000,"cc",28328.221,6.00,6,0.100,17747.000,0.200,1032.000,0.300,83.000,0.500,6.000,1.000,0,5.000,0
"03/09/08","05:01:51",18735.000,"cc",28302.182,6.00,6,0.100,17650.000,0.200,987.000,0.300,86.000,0.500,12.000,1.000,0,5.000,0
"03/09/08","05:01:57",18152.000,"cc",28282.488,6.00,6,0.100,17208.000,0.200,871.000,0.300,69.000,0.500,4.000,1.000,0,5.000,0
"03/09/08","05:02:03",18492.000,"cc",28271.816,6.00,6,0.100,17415.000,0.200,1006.000,0.300,63.000,0.500,8.000,1.000,0,5.000,0
"03/09/08","05:02:09",18230.000,"cc",28304.529,6.00,6,0.100,17201.000,0.200,943.000,0.300,81.000,0.500,5.000,1.000,0,5.000,0
"03/09/08","05:02:15",18357.000,"cc",28360.967,6.00,6,0.100,17270.000,0.200,968.000,0.300,102.000,0.500,16.000,1.000,1.000,5.000,0
"03/09/08","05:02:21",18318.000,"cc",28255.072,6.00,6,0.100,17273.000,0.200,958.000,0.300,81.000,0.500,6.000,1.000,0,5.000,0
"03/09/08","05:02:27",18079.000,"cc",28341.846,6.00,6,0.100,17033.000,0.200,936.000,0.300,101.000,0.500,8.000,1.000,1.000,5.000,0
"03/09/08","05:02:33",18244.000,"cc",28265.057,6.00,6,0.100,17200.000,0.200,977.000,0.300,61.000,0.500,6.000,1.000,0,5.000,0
"03/09/08","05:02:39",17998.000,"cc",28331.205,6.00,6,0.100,16905.000,0.200,1000.000,0.300,81.000,0.500,12.000,1.000,0,5.000,0
"03/09/08","05:02:45",18218.000,"cc",28336.709,6.00,6,0.100,17155.000,0.200,960.000,0.300,92.000,0.500,11.000,1.000,0,5.000,0
"03/09/08","05:02:51",18256.000,"cc",28310.795,6.00,6,0.100,17195.000,0.200,972.000,0.300,77.000,0.500,12.000,1.000,0,5.000,0
"03/09/08","05:02:57",18127.000,"cc",28333.387,6.00,6,0.100,17012.000,0.200,1031.000,0.300,77.000,0.500,7.000,1.000,0,5.000,0
"03/09/08","05:03:03",17961.000,"cc",28335.795,6.00,6,0.100,16865.000,0.200,1012.000,0.300,79.000,0.500,5.000,1.000,0,5.000,0
"03/09/08","05:03:09",17784.000,"cc",28261.133,6.00,6,0.100,16662.000,0.200,1017.000,0.300,91.000,0.500,14.000,1.000,0,5.000,0
"03/09/08","05:03:15",18129.000,"cc",28271.010,6.00,6,0.100,17048.000,0.200,993.000,0.300,78.000,0.500,10.000,1.000,0,5.000,0
"03/09/08","05:03:21",17962.000,"cc",28300.947,6.00,6,0.100,16898.000,0.200,972.000,0.300,84.000,0.500,8.000,1.000,0,5.000,0
"03/09/08","05:03:27",18031.000,"cc",28379.772,6.00,6,0.100,17054.000,0.200,900.000,0.300,68.000,0.500,9.000,1.000,0,5.000,0
"03/09/08","05:03:33",17193.000,"cc",28298.578,6.00,6,0.100,16316.000,0.200,816.000,0.300,55.000,0.500,6.000,1.000,0,5.000,0
"03/09/08","05:03:39",17594.000,"cc",28239.350,6.00,6,0.100,16635.000,0.200,892.000,0.300,58.000,0.500,9.000,1.000,0,5.000,0
"03/09/08","05:03:45",17537.000,"cc",28411.756,6.00,6,0.100,16507.000,0.200,954.000,0.300,64.000,0.500,12.000,1.000,0,5.000,0
"03/09/08","05:03:51",17814.000,"cc",28373.600,6.00,6,0.100,16762.000,0.200,974.000,0.300,66.000,0.500,12.000,1.000,0,5.000,0
"03/09/08","05:03:57",17600.000,"cc",28317.900,6.00,6,0.100,16537.000,0.200,950.000,0.300,92.000,0.500,21.000,1.000,0,5.000,0
"03/09/08","05:04:03",17567.000,"cc",28191.621,6.00,6,0.100,16549.000,0.200,937.000,0.300,71.000,0.500,10.000,1.000,0,5.000,0
"03/09/08","05:04:09",17879.000,"cc",28318.600,6.00,6,0.100,16818.000,0.200,958.000,0.300,91.000,0.500,12.000,1.000,0,5.000,0
"03/09/08","05:04:15",17448.000,"cc",28346.436,6.00,6,0.100,16478.000,0.200,907.000,0.300,57.000,0.500,6.000,1.000,0,5.000,0
"03/09/08","05:04:21",17429.000,"cc",28294.438,6.00,6,0.100,16420.000,0.200,928.000,0.300,65.000,0.500,16.000,1.000,0,5.000,0
"03/09/08","05:04:27",17850.000,"cc",28317.773,6.00,6,0.100,16785.000,0.200,976.000,0.300,75.000,0.500,14.000,1.000,0,5.000,0
"03/09/08","05:04:33",17353.000,"cc",28401.557,6.00,6,0.100,16350.000,0.200,937.000,0.300,62.000,0.500,4.000,1.000,0,5.000,0
"03/09/08","05:04:39",17038.000,"cc",28390.615,6.00,6,0.100,16049.000,0.200,912.000,0.300,69.000,0.500,7.000,1.000,1.000,5.000,0
"03/09/08","05:04:45",17581.000,"cc",28253.787,6.00,6,0.100,16530.000,0.200,972.000,0.300,71.000,0.500,8.000,1.000,0,5.000,0
"03/09/08","05:04:51",17348.000,"cc",28272.020,6.00,6,0.100,16284.000,0.200,976.000,0.300,74.000,0.500,14.000,1.000,0,5.000,0
"03/09/08","05:04:57",17373.000,"cc",28283.223,6.00,6,0.100,16378.000,0.200,911.000,0.300,73.000,0.500,11.000,1.000,0,5.000,0
"03/09/08","05:05:03",17408.000,"cc",28315.359,6.00,6,0.100,16424.000,0.200,889.000,0.300,85.000,0.500,9.000,1.000,1.000,5.000,0
"03/09/08","05:05:09",17090.000,"cc",28361.482,6.00,6,0.100,16151.000,0.200,876.000,0.300,57.000,0.500,6.000,1.000,0,5.000,0
"03/09/08","05:05:15",17456.000,"cc",28316.365,6.00,6,0.100,16369.000,0.200,981.000,0.300,90.000,0.500,16.000,1.000,0,5.000,0
"03/09/08","05:05:21",17396.000,"cc",28303.025,6.00,6,0.100,16367.000,0.200,955.000,0.300,68.000,0.500,6.000,1.000,0,5.000,0
"03/09/08","05:05:27",17435.000,"cc",28351.879,6.00,6,0.100,16333.000,0.200,999.000,0.300,88.000,0.500,15.000,1.000,0,5.000,0
"03/09/08","05:05:33",17607.000,"cc",28322.818,6.00,6,0.100,16546.000,0.200,969.000,0.300,74.000,0.500,18.000,1.000,0,5.000,0
"03/09/08","05:05:39",17048.000,"cc",28336.522,6.00,6,0.100,15986.000,0.200,1005.000,0.300,52.000,0.500,4.000,1.000,1.000,5.000,0
"03/09/08","05:05:45",17470.000,"cc",28289.033,6.00,6,0.100,16373.000,0.200,1001.000,0.300,83.000,0.500,13.000,1.000,0,5.000,0
"03/09/08","05:05:51",17309.000,"cc",28371.121,6.00,6,0.100,16321.000,0.200,913.000,0.300,70.000,0.500,5.000,1.000,0,5.000,0
"03/09/08","05:05:57",17338.000,"cc",28314.383,6.00,6,0.100,16331.000,0.200,885.000,0.300,103.000,0.500,19.000,1.000,0,5.000,0
"03/09/08","05:06:03",16867.000,"cc",28227.910,6.00,6,0.100,15899.000,0.200,887.000,0.300,67.000,0.500,12.000,1.000,2.000,5.000,0
"03/09/08","05:06:09",17061.000,"cc",28259.639,6.00,6,0.100,16123.000,0.200,866.000,0.300,62.000,0.500,10.000,1.000,0,5.000,0
"03/09/08","05:06:15",17022.000,"cc",28428.070,6.00,6,0.100,16018.000,0.200,943.000,0.300,58.000,0.500,3.000,1.000,0,5.000,0
"03/09/08","05:06:21",16385.000,"cc",28295.777,6.00,6,0.100,15451.000,0.200,893.000,0.300,41.000,0.500,0,1.000,0,5.000,0
"03/09/08","05:06:27",17004.000,"cc",28317.195,6.00,6,0.100,16003.000,0.200,927.000,0.300,67.000,0.500,7.000,1.000,0,5.000,0
"03/09/08","05:06:33",16984.000,"cc",28299.984,6.00,6,0.100,16014.000,0.200,880.000,0.300,81.000,0.500,8.000,1.000,1.000,5.000,0
"03/09/08","05:06:39",16817.000,"cc",28342.781,6.00,6,0.100,15831.000,0.200,899.000,0.300,69.000,0.500,18.000,1.000,0,5.000,0
"03/09/08","05:06:45",16946.000,"cc",28225.121,6.00,6,0.100,15958.000,0.200,923.000,0.300,58.000,0.500,7.000,1.000,0,5.000,0
"03/09/08","05:06:51",16705.000,"cc",28389.648,6.00,6,0.100,15712.000,0.200,919.000,0.300,62.000,0.500,12.000,1.000,0,5.000,0
"03/09/08","05:06:57",16040.000,"cc",28294.555,6.00,6,0.100,15142.000,0.200,840.000,0.300,53.000,0.500,5.000,1.000,0,5.000,0
"03/09/08","05:07:03",17301.000,"cc",28306.053,6.00,6,0.100,16261.000,0.200,957.000,0.300,66.000,0.500,17.000,1.000,0,5.000,0
"03/09/08","05:07:09",17106.000,"cc",28239.232,6.00,6,0.100,16061.000,0.200,955.000,0.300,78.000,0.500,12.000,1.000,0,5.000,0
"03/09/08","05:07:15",16882.000,"cc",28417.666,6.00,6,0.100,15864.000,0.200,938.000,0.300,75.000,0.500,5.000,1.000,0,5.000,0
"03/09/08","05:07:21",16873.000,"cc",28420.982,6.00,6,0.100,15828.000,0.200,949.000,0.300,81.000,0.500,15.000,1.000,0,5.000,0
"03/09/08","05:07:27",16956.000,"cc",28277.996,6.00,6,0.100,15929.000,0.200,949.000,0.300,74.000,0.500,4.000,1.000,0,5.000,0
"03/09/08","05:07:33",16862.000,"cc",28291.619,6.00,6,0.100,15763.000,0.200,979.000,0.300,107.000,0.500,13.000,1.000,0,5.000,0
"03/09/08","05:07:39",16878.000,"cc",28296.502,6.00,6,0.100,15816.000,0.200,964.000,0.300,85.000,0.500,13.000,1.000,0,5.000,0
"03/09/08","05:07:45",17190.000,"cc",28347.986,6.00,6,0.100,16193.000,0.200,911.000,0.300,80.000,0.500,6.000,1.000,0,5.000,0
"03/09/08","05:07:51",16973.000,"cc",28313.844,6.00,6,0.100,15934.000,0.200,943.000,0.300,84.000,0.500,12.000,1.000,0,5.000,0
"03/09/08","05:07:57",16865.000,"cc",28273.760,6.00,6,0.100,15857.000,0.200,929.000,0.300,75.000,0.500,4.000,1.000,0,5.000,0
"03/09/08","05:08:03",16501.000,"cc",28297.686,6.00,6,0.100,15550.000,0.200,885.000,0.300,62.000,0.500,4.000,1.000,0,5.000,0
"03/09/08","05:08:09",17058.000,"cc",28339.379,6.00,6,0.100,15989.000,0.200,966.000,0.300,85.000,0.500,18.000,1.000,0,5.000,0
"03/09/08","05:08:15",16239.000,"cc",28327.031,6.00,6,0.100,15314.000,0.200,861.000,0.300,61.000,0.500,2.000,1.000,1.000,5.000,0
"03/09/08","05:08:21",16363.000,"cc",28371.766,6.00,6,0.100,15390.000,0.200,899.000,0.300,65.000,0.500,8.000,1.000,1.000,5.000,0
"03/09/08","05:08:27",16971.000,"cc",28278.121,6.00,6,0.100,15905.000,0.200,948.000,0.300,95.000,0.500,22.000,1.000,1.000,5.000,0
"03/09/08","05:08:33",15694.000,"cc",28302.895,6.00,6,0.100,14886.000,0.200,736.000,0.300,63.000,0.500,9.000,1.000,0,5.000,0
"03/09/08","05:08:39",15821.000,"cc",28355.125,6.00,6,0.100,14883.000,0.200,860.000,0.300,67.000,0.500,11.000,1.000,0,5.000,0
"03/09/08","05:08:45",15995.000,"cc",28244.574,6.00,6,0.100,15065.000,0.200,872.000,0.300,55.000,0.500,3.000,1.000,0,5.000,0
"03/09/08","05:08:51",16076.000,"cc",28283.555,6.00,6,0.100,15112.000,0.200,901.000,0.300,57.000,0.500,6.000,1.000,0,5.000,0
"03/09/08","05:08:57",16470.000,"cc",28361.520,6.00,6,0.100,15488.000,0.200,911.000,0.300,65.000,0.500,6.000,1.000,0,5.000,0
"03/09/08","05:09:03",16188.000,"cc",28321.637,6.00,6,0.100,15228.000,0.200,888.000,0.300,64.000,0.500,8.000,1.000,0,5.000,0
"03/09/08","05:09:09",16072.000,"cc",28347.578,6.00,6,0.100,15169.000,0.200,833.000,0.300,62.000,0.500,8.000,1.000,0,5.000,0
"03/09/08","05:09:15",16151.000,"cc",28279.188,6.00,6,0.100,15151.000,0.200,927.000,0.300,62.000,0.500,11.000,1.000,0,5.000,0
"03/09/08","05:09:21",16077.000,"cc",28402.119,6.00,6,0.100,15171.000,0.200,842.000,0.300,54.000,0.500,10.000,1.000,0,5.000,0
"03/09/08","05:09:27",16254.000,"cc",28239.906,6.00,6,0.100,15214.000,0.200,950.000,0.300,73.000,0.500,17.000,1.000,0,5.000,0
"03/09/08","05:09:33",16096.000,"cc",28318.022,6.00,6,0.100,15106.000,0.200,903.000,0.300,71.000,0.500,16.000,1.000,0,5.000,0
"03/09/08","05:09:39",16411.000,"cc",28351.277,6.00,6,0.100,15392.000,0.200,944.000,0.300,66.000,0.500,9.000,1.000,0,5.000,0
"03/09/08","05:09:45",16520.000,"cc",28302.088,6.00,6,0.100,15484.000,0.200,950.000,0.300,76.000,0.500,10.000,1.000,0,5.000,0
"03/09/08","05:09:51",16353.000,"cc",28361.709,6.00,6,0.100,15289.000,0.200,971.000,0.300,76.000,0.500,17.000,1.000,0,5.000,0
"03/09/08","05:09:57",16053.000,"cc",28381.762,6.00,6,0.100,15069.000,0.200,919.000,0.300,57.000,0.500,8.000,1.000,0,5.000,0
"03/09/08","05:10:03",16391.000,"cc",28278.160,6.00,6,0.100,15401.000,0.200,893.000,0.300,80.000,0.500,17.000,1.000,0,5.000,0
"03/09/08","05:10:09",15500.000,"cc",28343.148,6.00,6,0.100,14668.000,0.200,773.000,0.300,52.000,0.500,7.000,1.000,0,5.000,0
"03/09/08","05:10:15",16314.000,"cc",28291.283,6.00,6,0.100,15309.000,0.200,911.000,0.300,80.000,0.500,14.000,1.000,0,5.000,0
"03/09/08","05:10:21",16059.000,"cc",28432.215,6.00,6,0.100,15066.000,0.200,911.000,0.300,71.000,0.500,10.000,1.000,1.000,5.000,0
"03/09/08","05:10:27",16591.000,"cc",28262.158,6.00,6,0.100,15541.000,0.200,949.000,0.300,86.000,0.500,15.000,1.000,0,5.000,0
"03/09/08","05:10:33",16375.000,"cc",28267.742,6.00,6,0.100,15402.000,0.200,914.000,0.300,52.000,0.500,6.000,1.000,1.000,5.000,0
"03/09/08","05:10:39",16343.000,"cc",28308.426,6.00,6,0.100,15350.000,0.200,916.000,0.300,70.000,0.500,7.000,1.000,0,5.000,0
"03/09/08","05:10:45",16418.000,"cc",28320.775,6.00,6,0.100,15469.000,0.200,878.000,0.300,67.000,0.500,4.000,1.000,0,5.000,0
"03/09/08","05:10:51",16333.000,"cc",28334.273,6.00,6,0.100,15303.000,0.200,962.000,0.300,64.000,0.500,4.000,1.000,0,5.000,0
"03/09/08","05:10:57",16570.000,"cc",28368.846,6.00,6,0.100,15551.000,0.200,935.000,0.300,75.000,0.500,9.000,1.000,0,5.000,0
"03/09/08","05:11:03",15915.000,"cc",28296.961,6.00,6,0.100,15028.000,0.200,831.000,0.300,46.000,0.500,10.000,1.000,0,5.000,0
"03/09/08","05:11:09",16210.000,"cc",28304.844,6.00,6,0.100,15331.000,0.200,817.000,0.300,58.000,0.500,4.000,1.000,0,5.000,0
"03/09/08","05:11:15",16685.000,"cc",28252.047,6.00,6,0.100,15680.000,0.200,925.000,0.300,69.000,0.500,11.000,1.000,0,5.000,0
"03/09/08","05:11:21",16443.000,"cc",28375.965,6.00,6,0.100,15476.000,0.200,870.000,0.300,84.000,0.500,13.000,1.000,0,5.000,0
"03/09/08","05:11:27",16229.000,"cc",28237.469,6.00,6,0.100,15288.000,0.200,862.000,0.300,70.000,0.500,9.000,1.000,0,5.000,0
"03/09/08","05:11:33",15975.000,"cc",28354.645,6.00,6,0.100,15029.000,0.200,865.000,0.300,71.000,0.500,10.000,1.000,0,5.000,0
"03/09/08","05:11:39",16218.000,"cc",28382.998,6.00,6,0.100,15301.000,0.200,848.000,0.300,65.000,0.500,4.000,1.000,0,5.000,0
"03/09/08","05:11:45",16471.000,"cc",28261.014,6.00,6,0.100,15586.000,0.200,832.000,0.300,45.000,0.500,8.000,1.000,0,5.000,0
"03/09/08","05:11:51",16186.000,"cc",28283.168,6.00,6,0.100,15303.000,0.200,812.000,0.300,62.000,0.500,9.000,1.000,0,5.000,0
"03/09/08","05:11:57",16049.000,"cc",28290.219,6.00,6,0.100,15121.000,0.200,865.000,0.300,60.000,0.500,3.000,1.000,0,5.000,0
"03/09/08","05:12:03",16012.000,"cc",28352.328,6.00,6,0.100,15078.000,0.200,868.000,0.300,54.000,0.500,12.000,1.000,0,5.000,0
"03/09/08","05:12:09",16656.000,"cc",28302.762,6.00,6,0.100,15613.000,0.200,955.000,0.300,79.000,0.500,8.000,1.000,1.000,5.000,0
"03/09/08","05:12:15",16409.000,"cc",28305.502,6.00,6,0.100,15402.000,0.200,943.000,0.300,61.000,0.500,3.000,1.000,0,5.000,0
"03/09/08","05:12:21",15953.000,"cc",28331.824,6.00,6,0.100,15080.000,0.200,816.000,0.300,53.000,0.500,4.000,1.000,0,5.000,0
"03/09/08","05:12:27",15900.000,"cc",28410.897,6.00,6,0.100,14994.000,0.200,839.000,0.300,58.000,0.500,9.000,1.000,0,5.000,0
"03/09/08","05:12:33",16038.000,"cc",28323.096,6.00,6,0.100,15172.000,0.200,798.000,0.300,67.000,0.500,1.000,1.000,0,5.000,0
"03/09/08","05:12:39",16273.000,"cc",28301.727,6.00,6,0.100,15292.000,0.200,914.000,0.300,61.000,0.500,6.000,1.000,0,5.000,0
"03/09/08","05:12:45",16001.000,"cc",28259.295,6.00,6,0.100,15119.000,0.200,815.000,0.300,62.000,0.500,5.000,1.000,0,5.000,0
"03/09/08","05:12:51",15883.000,"cc",28363.760,6.00,6,0.100,15022.000,0.200,796.000,0.300,59.000,0.500,6.000,1.000,0,5.000,0
"03/09/08","05:12:57",16157.000,"cc",28305.254,6.00,6,0.100,15170.000,0.200,908.000,0.300,66.000,0.500,13.000,1.000,0,5.000,0
"03/09/08","05:13:03",15853.000,"cc",28264.481,6.00,6,0.100,14912.000,0.200,856.000,0.300,79.000,0.500,6.000,1.000,0,5.000,0
"03/09/08","05:13:09",16803.000,"cc",28311.141,6.00,6,0.100,15718.000,0.200,995.000,0.300,74.000,0.500,16.000,1.000,0,5.000,0
"03/09/08","05:13:15",15889.000,"cc",28377.168,6.00,6,0.100,14947.000,0.200,884.000,0.300,48.000,0.500,10.000,1.000,0,5.000,0
"03/09/08","05:13:21",16414.000,"cc",28340.166,6.00,6,0.100,15372.000,0.200,958.000,0.300,73.000,0.500,11.000,1.000,0,5.000,0
"03/09/08","05:13:27",15875.000,"cc",28279.291,6.00,6,0.100,14948.000,0.200,859.000,0.300,62.000,0.500,6.000,1.000,0,5.000,0
"03/09/08","05:13:33",16279.000,"cc",28337.606,6.00,6,0.100,15281.000,0.200,923.000,0.300,68.000,0.500,7.000,1.000,0,5.000,0
"03/09/08","05:13:39",16207.000,"cc",28232.449,6.00,6,0.100,15242.000,0.200,896.000,0.300,59.000,0.500,10.000,1.000,0,5.000,0
"03/09/08","05:13:45",15901.000,"cc",28261.953,6.00,6,0.100,14977.000,0.200,862.000,0.300,51.000,0.500,11.000,1.000,0,5.000,0
"03/09/08","05:13:51",15703.000,"cc",28474.762,6.00,6,0.100,14763.000,0.200,890.000,0.300,44.000,0.500,6.000,1.000,0,5.000,0
"03/09/08","05:13:57",16381.000,"cc",28280.662,6.00,6,0.100,15477.000,0.200,835.000,0.300,61.000,0.500,7.000,1.000,1.000,5.000,0
"03/09/08","05:14:03",16412.000,"cc",28318.119,6.00,6,0.100,15373.000,0.200,969.000,0.300,58.000,0.500,12.000,1.000,0,5.000,0
"03/09/08","05:14:09",16476.000,"cc",28311.518,6.00,6,0.100,15532.000,0.200,860.000,0.300,75.000,0.500,9.000,1.000,0,5.000,0
"03/09/08","05:14:15",16426.000,"cc",28310.826,6.00,6,0.100,15400.000,0.200,959.000,0.300,63.000,0.500,4.000,1.000,0,5.000,0
"03/09/08","05:14:21",15738.000,"cc",28362.156,6.00,6,0.100,14870.000,0.200,802.000,0.300,62.000,0.500,4.000,1.000,0,5.000,0
"03/09/08","05:14:27",15711.000,"cc",28346.162,6.00,6,0.100,14802.000,0.200,827.000,0.300,73.000,0.500,9.000,1.000,0,5.000,0
"03/09/08","05:14:33",16278.000,"cc",28348.119,6.00,6,0.100,15229.000,0.200,948.000,0.300,81.000,0.500,20.000,1.000,0,5.000,0
"03/09/08","05:14:39",16265.000,"cc",28299.510,6.00,6,0.100,15241.000,0.200,921.000,0.300,91.000,0.500,12.000,1.000,0,5.000,0
"03/09/08","05:14:45",16160.000,"cc",28276.113,6.00,6,0.100,15146.000,0.200,923.000,0.300,78.000,0.500,13.000,1.000,0,5.000,0
"03/09/08","05:14:51",16520.000,"cc",28218.065,6.00,6,0.100,15498.000,0.200,932.000,0.300,80.000,0.500,10.000,1.000,0,5.000,0
"03/09/08","05:14:57",16108.000,"cc",28373.481,6.00,6,0.100,15183.000,0.200,869.000,0.300,51.000,0.500,5.000,1.000,0,5.000,0
"03/09/08","05:15:03",15761.000,"cc",28305.658,6.00,6,0.100,14869.000,0.200,834.000,0.300,53.000,0.500,4.000,1.000,1.000,5.000,0
"03/09/08","05:15:09",16195.000,"cc",28339.746,6.00,6,0.100,15184.000,0.200,940.000,0.300,66.000,0.500,5.000,1.000,0,5.000,0
"03/09/08","05:15:15",16089.000,"cc",28316.371,6.00,6,0.100,15085.000,0.200,932.000,0.300,63.000,0.500,9.000,1.000,0,5.000,0
"03/09/08","05:15:21",15619.000,"cc",28323.023,6.00,6,0.100,14641.000,0.200,897.000,0.300,72.000,0.500,8.000,1.000,1.000,5.000,0
"03/09/08","05:15:27",15984.000,"cc",28287.305,6.00,6,0.100,14953.000,0.200,956.000,0.300,66.000,0.500,8.000,1.000,1.000,5.000,0
"03/09/08","05:15:33",15915.000,"cc",28308.408,6.00,6,0.100,14964.000,0.200,879.000,0.300,61.000,0.500,11.000,1.000,0,5.000,0
"03/09/08","05:15:39",15906.000,"cc",28356.094,6.00,6,0.100,14891.000,0.200,922.000,0.300,77.000,0.500,15.000,1.000,1.000,5.000,0
"03/09/08","05:15:45",15934.000,"cc",28360.147,6.00,6,0.100,15073.000,0.200,818.000,0.300,39.000,0.500,4.000,1.000,0,5.000,0
"03/09/08","05:15:51",16001.000,"cc",28366.885,6.00,6,0.100,14935.000,0.200,973.000,0.300,81.000,0.500,12.000,1.000,0,5.000,0
"03/09/08","05:15:57",15883.000,"cc",28246.850,6.00,6,0.100,14869.000,0.200,929.000,0.300,79.000,0.500,6.000,1.000,0,5.000,0
"03/09/08","05:16:03",16051.000,"cc",28335.898,6.00,6,0.100,14957.000,0.200,991.000,0.300,86.000,0.500,16.000,1.000,1.000,5.000,0
"03/09/08","05:16:09",15816.000,"cc",28355.895,6.00,6,0.100,14830.000,0.200,897.000,0.300,80.000,0.500,9.000,1.000,0,5.000,0
"03/09/08","05:16:15",15314.000,"cc",28273.797,6.00,6,0.100,14337.000,0.200,915.000,0.300,58.000,0.500,4.000,1.000,0,5.000,0
"03/09/08","05:16:21",15854.000,"cc",28212.918,6.00,6,0.100,14785.000,0.200,966.000,0.300,89.000,0.500,14.000,1.000,0,5.000,0
"03/09/08","05:16:27",15550.000,"cc",28426.527,6.00,6,0.100,14653.000,0.200,839.000,0.300,54.000,0.500,3.000,1.000,1.000,5.000,0
"03/09/08","05:16:33",15703.000,"cc",28344.578,6.00,6,0.100,14660.000,0.200,945.000,0.300,86.000,0.500,12.000,1.000,0,5.000,0
"03/09/08","05:16:39",15199.000,"cc",28217.594,6.00,6,0.100,14283.000,0.200,868.000,0.300,47.000,0.500,0,1.000,1.000,5.000,0
"03/09/08","05:16:45",15334.000,"cc",28315.826,6.00,6,0.100,14455.000,0.200,808.000,0.300,62.000,0.500,9.000,1.000,0,5.000,0
"03/09/08","05:16:51",15606.000,"cc",28346.811,6.00,6,0.100,14704.000,0.200,835.000,0.300,58.000,0.500,9.000,1.000,0,5.000,0
"03/09/08","05:16:57",14698.000,"cc",28297.379,6.00,6,0.100,13816.000,0.200,817.000,0.300,58.000,0.500,7.000,1.000,0,5.000,0
"03/09/08","05:17:03",15305.000,"cc",28291.723,6.00,6,0.100,14440.000,0.200,797.000,0.300,61.000,0.500,6.000,1.000,1.000,5.000,0
"03/09/08","05:17:09",15527.000,"cc",28373.578,6.00,6,0.100,14535.000,0.200,930.000,0.300,54.000,0.500,7.000,1.000,1.000,5.000,0
"03/09/08","05:17:15",15474.000,"cc",28354.496,6.00,6,0.100,14470.000,0.200,933.000,0.300,62.000,0.500,9.000,1.000,0,5.000,0
"03/09/08","05:17:21",15644.000,"cc",28330.381,6.00,6,0.100,14658.000,0.200,910.000,0.300,65.000,0.500,10.000,1.000,1.000,5.000,0
"03/09/08","05:17:27",15616.000,"cc",28318.096,6.00,6,0.100,14573.000,0.200,946.000,0.300,81.000,0.500,14.000,1.000,2.000,5.000,0
"03/09/08","05:17:33",15303.000,"cc",28315.316,6.00,6,0.100,14374.000,0.200,855.000,0.300,66.000,0.500,8.000,1.000,0,5.000,0
"03/09/08","05:17:39",15424.000,"cc",28306.492,6.00,6,0.100,14494.000,0.200,868.000,0.300,53.000,0.500,9.000,1.000,0,5.000,0
"03/09/08","05:17:45",15155.000,"cc",28293.570,6.00,6,0.100,14215.000,0.200,888.000,0.300,46.000,0.500,6.000,1.000,0,5.000,0